Simultaneous Nadir Overpasses (SNOs) Predictions

Prediction of SNOs between METOP-A and NOAA-19 Satellite Orbit:

Table of predicted SNOs for the next 14.0 days since TLE Epoch: 10/27/2017
Index Date (METOP-A) Time (METOP-A) Lat,Lon (METOP-A) SZA (METOP-A ) Date (NOAA-19) Time (NOAA-19) Lat,Lon (NOAA-19) SZA (NOAA-19 ) Distance(km) Time Diff (sec)
1 11/06/2017 14:58:56 77.83, -38.37 94.11 11/06/2017 14:57:41 77.80, -38.39 94.07 3.33 75
2 11/06/2017 15:49:38 -77.80, 128.82 85.91 11/06/2017 15:48:39 -77.82, 128.79 85.91 1.57 59
3 11/06/2017 16:40:18 77.81, -63.82 94.11 11/06/2017 16:39:42 77.78, -63.80 94.08 2.82 36
4 11/06/2017 17:31:00 -77.78, 103.38 85.92 11/06/2017 17:30:40 -77.80, 103.37 85.90 1.92 20
5 11/06/2017 18:21:40 77.79, -89.26 94.10 11/06/2017 18:21:43 77.77, -89.22 94.09 2.48 3
6 11/06/2017 19:12:22 -77.76, 77.94 85.92 11/06/2017 19:12:41 -77.78, 77.95 85.90 2.47 19
7 11/06/2017 20:03:02 77.77,-114.70 94.10 11/06/2017 20:03:44 77.75,-114.64 94.09 2.37 42
8 11/06/2017 20:53:44 -77.74, 52.50 85.92 11/06/2017 20:54:42 -77.77, 52.54 85.89 3.11 58
9 11/06/2017 21:44:32 77.41,-141.70 93.71 11/06/2017 21:45:38 77.46,-138.62 93.88 74.71 66




NCC Satellite Simultaneous Nadir Overpasses (SNOs) Prediction Service
